GFSSE_con_3kmhel_087.txt.gz
Helicity
96 74 67 73 60 63 59 47 45 37 35 43 49 21 30 44 52 32 49 40 42 21 28 16 11 16 4 -6 -12 -5 -0 6 8 4 -3 -11 -0 -3 4 3 -0 -2 -3
122 78 52 73 51 54 44 41 42 40 26 7 20 21 18 33 29 41 31 41 27 18 6 6 6 -0 -6 -17 -21 -12 -15 -9 -7 -9 -12 -15 -20 -18 -12 -24 -17 -8 2
125 87 52 58 50 49 36 36 30 33 28 -20 -7 10 19 22 33 18 33 30 13 5 4 -1 -9 -17 -33 -37 -34 -28 -24 -20 -15 -14 -22 -30 -22 -14 -10 -16 -14 -16 1
119 82 57 51 54 48 30 28 21 21 14 -23 -11 15 24 37 31 30 23 7 -0 -4 -1 -12 -26 -41 -44 -38 -33 -28 -24 -17 -15 -20 -24 -22 -12 -3 -2 -0 -2 -14 -16
109 76 61 49 50 46 29 25 19 9 4 -4 5 5 24 41 33 22 -0 -9 -13 -12 -12 -22 -37 -37 -30 -22 -18 -16 -14 -11 -14 -16 -13 -11 -8 5 10 7 5 4 -4
96 67 56 53 61 41 36 19 24 5 -0 15 25 36 40 49 25 -0 -10 -14 -22 -27 -30 -31 -30 -27 -26 -18 -11 -9 -5 -7 -15 -10 -9 -3 4 13 16 15 14 15 13
94 70 48 57 60 37 42 31 25 2 -2 15 35 38 44 35 -1 -16 -19 -18 -33 -31 -35 -29 -20 -17 -11 -14 -7 -3 -2 -4 -7 -7 -4 -2 9 18 21 20 19 20 22
113 91 64 54 52 35 47 32 36 4 -3 2 18 16 6 -22 -23 -21 -22 -27 -34 -33 -31 -23 -15 -11 1 3 3 6 3 -3 -6 -2 -2 -3 6 19 23 24 24 26 28
113 109 71 69 45 51 66 41 24 2 -3 -6 -14 -20 -29 -23 -25 -26 -34 -35 -35 -32 -25 -14 -6 -0 6 11 11 9 7 5 -2 -3 -1 -1 -10 19 22 27 31 35 38
124 118 102 70 46 62 74 49 16 12 3 13 2 2 -18 -27 -39 -35 -39 -38 -25 -14 -3 5 10 15 18 17 14 13 18 14 4 -1 -1 2 -10 16 25 30 33 39 43
128 114 99 72 67 84 78 59 24 25 10 15 11 6 -6 -32 -46 -43 -30 -20 -6 7 13 23 24 30 30 32 26 16 10 9 7 4 3 1 -2 15 27 32 37 43 47
135 127 81 53 64 76 84 69 46 9 1 -2 -10 -21 -23 -26 -29 -31 -26 -14 -1 14 25 32 38 39 31 29 21 18 15 12 10 12 11 1 4 9 31 36 38 43 48
86 125 75 55 69 66 77 72 81 54 17 -6 -11 -17 -13 -13 -14 -16 -9 1 11 21 23 31 38 36 34 31 29 25 14 11 12 15 17 7 7 10 14 43 42 39 42
67 67 61 58 54 58 75 72 68 57 34 41 3 -2 -0 8 12 16 17 20 22 27 28 28 31 32 30 29 22 20 23 19 18 23 24 20 16 10 9 19 34 42 40
64 70 49 33 24 18 48 70 61 52 48 43 31 25 27 26 23 28 30 33 31 35 38 32 32 33 31 27 25 20 17 18 20 27 34 34 26 23 23 24 30 45 44
62 68 65 54 32 -0 -23 -3 37 51 52 50 45 43 36 42 37 38 37 38 37 42 43 42 40 37 32 30 27 31 28 29 31 32 38 41 39 32 23 27 29 37 35
77 88 72 69 54 18 -7 -18 3 31 47 40 48 43 44 46 42 47 48 47 47 56 54 56 53 47 38 36 26 32 39 36 36 36 42 41 45 44 32 14 25 36 34
68 156 131 144 95 40 22 1 51 35 30 30 33 40 38 44 44 54 61 56 60 67 69 68 67 59 50 44 40 37 40 42 28 28 34 42 49 46 39 33 40 43 48
117 104 66 48 70 13 -3 27 57 79 67 56 44 43 40 33 42 56 64 67 83 86 80 79 83 74 68 54 44 32 28 33 26 32 32 42 48 49 59 57 61 65 61
101 -76 -6 55 -9 -16 22 116 97 86 87 87 67 55 49 45 54 69 74 87 99 98 93 99 92 90 78 64 54 46 33 36 35 41 44 56 45 35 47 58 74 79 73
2 11 7 -21 -5 -63 -31 30 58 74 93 81 49 22 4 77 62 51 74 123 135 113 91 91 114 104 91 72 59 63 52 38 40 46 44 46 62 55 62 52 60 76 96
63 80 -27 -19 -57 -86 41 1 20 -59 44 68 30 56 59 50 54 64 87 105 139 122 92 102 118 115 80 79 94 83 88 69 44 25 62 67 69 73 78 80 74 82 107
6 -4 -16 29 -1 -33 156 126 94 76 -11 -3 -20 -11 10 29 60 52 89 109 103 113 112 107 116 100 139 111 85 80 78 80 44 29 52 77 93 84 90 92 107 112 124
81 48 107 92 -22 -68 149 84 61 -29 38 29 12 78 34 105 58 122 106 74 96 102 110 193 167 135 132 170 96 97 83 94 73 49 71 93 97 88 91 95 111 131 144
56 8 23 83 89 100 125 126 73 90 88 30 71 102 57 102 155 179 154 188 208 244 158 50 52 76 100 105 98 102 112 109 111 108 99 93 94 95 95 103 115 124 142
74 41 36 43 59 73 70 61 69 82 88 88 90 109 141 163 137 162 178 154 145 163 211 156 121 116 138 125 134 122 116 117 114 113 122 110 90 77 95 111 119 125 143

GFSSE_con_3kmhel_090.txt.gz
Helicity
99 120 113 102 74 68 48 36 34 35 46 54 57 26 34 41 45 36 31 28 30 32 24 17 6 3 -1 8 22 21 18 15 12 10 19 18 14 10 -7 -12 -9 0 -4
116 117 100 89 71 61 52 36 31 22 29 40 40 26 37 38 30 29 22 27 21 14 12 26 9 -1 -4 8 4 1 2 0 -6 -15 -23 -10 -11 -13 -18 -8 2 5 3
108 115 75 75 70 58 48 49 42 24 12 18 12 22 34 41 32 25 26 17 9 8 16 6 0 -4 -14 -12 -15 -13 -9 -11 -14 -26 -58 -15 -8 -16 -19 -13 -13 0 5
111 111 77 67 78 56 48 45 42 32 -7 -25 1 7 29 29 28 28 26 12 1 13 2 -10 -21 -23 -25 -22 -19 -12 -7 -9 -23 -42 -20 -7 -1 -5 -7 -9 -15 -4 13
107 98 102 77 73 48 46 46 42 33 -12 -42 5 16 31 39 32 30 19 0 15 10 -9 -21 -28 -22 -16 -12 -9 -7 -7 -11 -36 -20 -4 -5 -1 6 3 -5 7 -2 -1
113 91 123 74 61 47 44 51 46 27 21 -6 11 41 49 45 41 24 22 14 25 2 -12 -19 -21 -16 -11 -7 -5 -1 -6 -21 -46 -3 1 0 10 9 8 3 4 5 1
98 88 79 66 69 51 49 54 55 37 38 34 44 45 48 43 28 20 19 16 6 -9 -18 -12 -10 -10 -11 -6 -1 0 -2 -23 -5 0 2 5 12 11 11 9 9 11 15
91 80 71 56 83 56 53 48 57 41 38 44 59 60 63 43 23 14 8 -2 -14 -13 -13 -9 -4 2 1 0 4 3 -1 -23 -8 6 7 11 10 11 12 14 18 20 25
67 64 63 55 84 66 75 68 56 35 50 66 70 69 56 27 16 13 2 -12 -17 -16 -10 -6 1 7 13 14 12 7 2 -15 -5 9 8 11 6 15 17 19 25 28 34
86 77 65 71 82 58 66 80 53 39 47 67 83 67 47 26 21 8 -9 -22 -18 -13 -4 2 8 18 24 28 25 20 10 -11 8 8 11 26 5 19 22 24 29 32 37
111 105 91 83 99 62 63 73 62 52 61 74 75 50 19 10 -3 -13 -4 -15 -5 -2 5 12 19 24 32 33 29 19 -2 10 11 12 14 38 7 18 26 28 32 36 43
125 119 113 113 98 71 86 56 54 58 41 28 16 14 17 2 -8 -21 -2 4 13 12 18 18 24 25 -3 17 23 14 5 16 16 19 20 28 9 10 25 30 31 33 41
165 156 115 96 79 77 80 79 76 73 69 54 38 22 15 7 0 -3 -5 -6 1 7 10 9 16 12 18 16 16 14 16 9 12 17 31 20 8 7 11 30 32 30 35
228 147 124 99 76 73 92 93 80 78 66 69 38 16 11 10 0 -5 1 15 20 21 22 24 24 24 17 17 16 12 13 9 12 23 40 33 19 13 11 15 28 36 43
134 66 81 76 68 76 77 89 95 73 50 52 37 27 21 14 14 25 31 35 36 36 32 32 33 31 26 22 20 14 13 11 12 24 24 42 26 19 13 12 14 21 38
92 93 81 46 66 60 67 65 71 64 48 48 47 34 36 40 41 45 45 44 42 42 44 42 43 43 40 32 26 23 20 24 24 26 36 42 36 25 22 7 15 14 21
101 4 94 49 25 33 51 51 58 59 66 57 52 39 37 45 43 43 48 49 48 50 51 52 53 56 56 48 34 32 32 29 34 28 31 34 37 33 15 13 20 21 27
71 86 31 43 32 31 30 32 28 42 55 53 55 53 39 37 37 41 49 48 53 57 63 63 62 60 60 60 55 48 38 33 25 18 25 22 18 22 34 28 28 32 39
-17 52 92 78 69 32 19 5 21 35 62 69 57 48 32 34 30 33 36 47 62 62 60 67 76 72 82 78 78 65 54 54 26 23 14 16 23 27 25 31 42 38 39
8 82 45 180 56 25 19 12 22 44 54 101 113 105 64 53 47 45 45 45 54 57 60 65 71 86 92 106 100 87 53 37 39 29 23 25 22 27 28 32 38 43 59
55 72 108 14 51 50 58 72 40 83 96 73 80 56 30 28 41 52 69 76 75 65 56 53 95 107 122 137 141 82 64 59 51 41 34 31 48 48 45 54 59 55 66
0 -95 -180 5 127 33 47 27 23 131 129 80 71 32 28 35 36 40 42 85 114 78 109 108 106 122 122 128 136 134 137 113 115 55 40 39 47 47 54 63 69 70 81
-39 -83 -23 13 -87 -18 35 -2 45 55 87 93 70 106 60 9 31 20 44 59 50 61 92 122 143 184 160 165 173 197 161 145 126 28 21 40 41 48 61 74 82 82 88
31 55 3 45 48 -1 -78 -12 22 29 44 28 67 94 29 -15 15 41 25 46 103 83 101 107 84 226 411 342 229 196 183 148 61 38 44 36 52 41 67 91 100 99 103
-4 -8 39 45 71 52 47 12 -3 -34 -4 38 19 3 33 18 76 90 64 46 116 208 164 181 153 184 127 180 220 186 161 52 50 74 45 75 74 64 89 100 106 107 109
-9 15 2 -1 7 39 -10 -50 -5 19 20 -7 0 -21 138 67 125 115 108 109 140 208 188 141 135 135 106 71 129 103 62 90 94 116 112 82 80 74 89 85 93 103 115

GFSSE_con_3kmhel_096.txt.gz
Helicity
153 137 126 106 97 91 70 73 76 67 39 48 30 20 26 34 28 24 19 19 20 30 46 49 36 48 55 44 39 33 30 28 24 32 41 29 29 36 45 4 10 2 8
195 111 144 106 88 84 68 65 74 74 55 51 37 22 27 37 23 25 20 28 53 51 53 56 52 50 41 32 29 20 12 2 -5 -10 -3 5 13 18 32 8 4 7 10
208 127 156 114 92 79 72 64 68 73 70 67 49 29 31 40 33 34 51 46 57 48 55 65 58 42 35 22 13 5 -15 -28 -28 -36 -31 -28 -7 10 19 26 21 15 26
179 125 160 134 102 80 69 65 61 64 69 68 58 38 39 44 38 39 47 55 55 45 54 57 40 27 20 14 8 -4 -19 -6 21 29 -31 -8 -1 10 10 15 25 33 33
192 81 145 121 114 81 69 70 57 56 57 61 48 45 43 49 45 43 36 55 65 44 42 28 35 21 10 6 5 -9 -18 16 55 43 28 -3 -6 5 12 15 15 18 22
137 116 179 130 103 89 75 65 58 52 50 53 39 40 55 55 48 50 56 68 59 53 27 18 13 7 7 7 -0 -15 -11 4 -2 -11 5 17 -1 16 19 18 18 18 18
139 171 171 151 105 85 79 62 55 51 48 34 24 33 65 75 53 66 62 73 60 33 15 4 8 8 7 6 -0 -14 -10 6 -7 12 19 8 1 21 24 22 20 21 23
168 147 145 169 120 88 77 76 66 60 47 30 23 47 78 85 58 78 58 51 50 34 25 10 2 6 7 6 3 -10 -11 4 -0 23 28 7 11 21 25 27 27 26 29
133 155 131 198 136 107 91 92 70 69 42 34 58 93 109 91 62 65 50 49 49 30 18 15 6 4 5 8 4 -7 -16 7 18 7 34 3 13 22 24 28 28 29 29
457 497 392 161 156 140 129 101 94 73 68 83 123 147 154 105 91 67 71 53 41 34 29 21 14 13 12 9 7 -2 -16 -5 -3 11 31 17 22 24 23 23 21 22 25
387 494 598 686 205 111 121 114 124 101 144 184 206 186 170 113 95 68 75 56 44 35 28 22 17 16 16 14 9 -1 -18 -12 -26 13 53 35 23 20 17 12 16 19 26
304 304 386 518 416 122 113 131 165 140 159 187 197 137 143 106 105 80 70 57 49 38 26 21 18 12 6 6 11 -0 -6 -5 21 37 36 36 23 10 12 11 12 15 19
193 245 120 370 216 251 125 161 168 172 135 135 109 121 90 60 84 139 105 66 58 29 21 24 16 5 -6 8 25 21 12 17 13 38 36 36 24 11 6 6 10 10 16
170 124 177 102 86 124 146 204 172 174 142 74 89 74 88 134 126 115 94 44 28 10 8 16 13 -2 2 15 11 9 33 19 14 47 45 37 24 13 6 -0 -1 3 13
184 96 25 179 49 -38 -122 148 204 169 143 184 148 79 138 143 118 85 54 28 24 24 -0 20 22 23 35 12 10 29 28 27 4 42 49 42 28 20 13 9 2 -4 -7
160 160 49 61 81 -42 4 94 174 178 192 169 125 166 232 143 111 105 73 55 37 46 49 42 38 36 35 34 31 30 26 28 40 57 70 46 40 14 15 12 7 7 7
154 161 59 -92 -73 33 -1 110 205 193 173 230 256 286 226 146 155 125 96 72 70 71 48 52 44 55 38 56 48 51 50 37 42 40 53 78 38 17 30 6 3 8 11
168 171 124 132 324 114 121 97 91 167 203 190 185 173 138 129 115 101 83 76 55 60 62 67 57 65 50 56 50 43 58 59 51 43 50 92 56 54 16 9 8 8 7
183 172 180 119 177 269 173 52 49 116 178 157 142 132 123 107 98 94 76 67 70 91 80 69 59 61 49 41 49 47 55 78 114 76 44 36 88 111 81 56 8 5 19
178 141 111 80 98 302 137 83 98 99 115 129 120 119 98 115 101 95 95 95 115 115 88 72 58 57 58 50 61 56 69 139 110 67 63 132 133 82 55 49 42 36 32
50 87 92 151 111 164 238 209 163 87 127 130 118 95 97 111 108 105 115 112 107 86 94 119 67 57 58 44 86 103 124 114 68 62 175 158 109 69 69 64 56 52 40
12 74 102 171 205 296 220 151 148 138 149 160 176 164 125 119 118 114 104 103 111 135 130 126 131 150 108 123 81 113 156 141 118 163 168 129 106 83 72 71 84 92 110
32 21 25 120 276 211 117 114 118 141 117 125 121 130 123 94 98 91 75 66 68 76 78 96 117 132 148 179 155 132 164 167 262 275 257 230 174 118 98 94 99 103 116
40 62 79 139 201 177 152 125 119 158 210 114 114 157 189 166 110 112 106 95 88 72 75 54 77 66 66 105 196 291 196 125 232 244 186 190 122 104 71 106 107 118 105
23 160 86 88 181 191 160 219 238 264 99 84 103 131 134 192 134 117 85 73 99 105 89 113 94 76 105 153 132 175 147 121 199 195 127 80 118 44 62 98 109 102 144
178 166 234 120 123 75 89 94 67 91 126 136 128 135 154 180 85 95 112 99 117 183 142 168 150 97 76 181 103 124 139 197 140 152 133 116 100 81 90 95 76 96 132

GFSSE_con_3kmhel_099.txt.gz
Helicity
56 61 98 171 132 121 122 108 92 85 86 77 66 60 56 46 47 39 33 37 37 37 60 67 63 57 56 49 42 42 43 38 40 39 42 43 44 26 18 15 9 -3 10
73 92 92 149 172 121 112 108 106 80 71 67 54 46 49 40 38 32 23 27 37 70 66 64 74 58 53 43 35 28 31 22 18 20 22 28 22 25 20 10 7 18 14
121 90 122 146 168 145 113 103 101 92 78 67 57 47 45 45 33 28 40 59 64 76 66 56 50 47 42 30 15 12 10 3 -9 -2 -3 -3 -2 15 22 25 20 36 35
142 128 154 177 166 148 120 96 90 81 83 76 64 51 52 50 48 54 52 73 74 69 76 53 38 39 31 19 5 10 11 10 -14 -19 -17 -0 1 12 15 20 20 22 37
128 120 146 178 166 129 117 97 84 79 83 76 63 60 68 57 58 57 82 82 84 70 55 43 26 25 21 9 8 11 19 32 30 34 2 -2 -7 4 12 13 13 19 26
72 118 150 151 151 121 103 92 85 73 71 76 63 68 76 67 62 60 89 99 82 67 66 40 24 16 15 9 4 14 22 24 7 15 8 10 -3 13 15 16 17 19 22
70 89 114 147 136 113 95 86 80 76 59 64 62 68 65 70 70 79 102 83 66 61 53 32 19 15 12 8 8 17 32 42 19 5 6 5 -0 18 22 22 21 21 22
137 104 106 139 130 114 83 81 71 78 66 56 53 53 70 83 81 86 78 99 58 52 33 26 20 17 13 7 3 13 26 43 9 7 5 -0 10 20 23 23 26 31 34
233 157 150 133 149 124 98 91 79 66 68 52 41 50 86 92 85 76 82 94 66 69 36 22 17 15 11 8 3 1 17 25 9 5 4 -4 8 20 22 26 29 33 34
482 403 280 188 175 161 141 93 88 85 84 65 55 90 104 114 97 92 69 79 71 66 45 33 17 15 12 8 1 -2 11 19 22 22 6 -1 18 21 25 26 27 30 29
395 410 352 357 273 147 133 120 110 101 97 89 133 143 149 124 104 130 87 84 77 66 49 25 21 19 16 11 5 -0 5 9 7 21 13 21 22 20 21 20 20 21 22
284 292 344 354 346 310 190 165 163 171 196 178 205 208 207 157 133 153 106 90 79 57 37 25 19 17 14 6 -1 -5 2 10 14 19 23 25 24 18 16 15 15 14 12
282 273 230 307 293 278 350 339 190 196 216 227 226 247 183 212 160 158 150 109 91 52 33 28 18 10 2 7 4 2 6 1 23 30 26 25 26 17 9 8 7 7 8
227 216 231 221 203 283 337 282 274 156 194 231 234 259 256 252 174 149 140 114 82 47 31 19 13 1 4 4 -8 7 -4 5 33 33 30 28 20 15 7 3 -0 -0 5
254 175 161 201 222 226 262 231 329 192 157 175 268 255 200 191 160 139 147 105 72 42 22 13 12 10 1 2 15 17 14 7 25 47 29 33 24 9 6 6 5 2 -2
186 206 158 176 159 197 304 303 125 121 123 177 155 175 68 137 147 135 136 98 53 33 17 25 22 21 3 23 8 10 20 25 13 58 50 48 35 28 3 -0 -4 -0 1
146 160 135 186 160 132 185 325 294 47 158 186 126 76 108 189 133 140 128 92 50 35 40 40 27 40 46 36 24 26 26 30 35 46 74 78 57 17 27 9 8 13 9
128 90 78 128 146 132 166 284 133 168 107 190 210 187 164 164 173 160 129 88 76 74 69 66 73 65 57 55 55 38 37 48 23 43 59 89 78 65 34 34 32 23 9
58 98 120 152 193 187 207 215 357 241 223 181 223 279 252 218 201 173 142 113 104 99 89 77 82 80 67 62 52 46 32 40 26 58 43 78 108 100 86 49 26 25 27
146 108 131 232 184 203 249 313 415 90 194 185 257 270 245 193 165 153 137 108 102 100 96 97 91 80 77 55 44 40 38 41 72 80 75 126 170 136 98 79 63 62 60
129 41 157 177 189 261 291 277 210 124 114 35 185 211 168 144 128 132 126 113 117 115 96 89 90 75 60 70 100 91 60 61 78 92 82 172 154 128 77 84 88 77 67
-19 65 59 87 90 153 179 209 317 185 132 101 102 110 126 117 111 118 119 135 128 147 124 110 101 120 107 80 96 110 85 77 103 104 161 143 171 129 131 99 108 97 74
-158 48 260 80 76 68 51 225 278 185 128 226 165 129 119 124 133 129 139 158 161 159 135 122 125 106 126 140 115 126 90 107 235 316 229 152 140 193 146 105 105 66 58
-170 16 49 50 145 117 91 212 229 221 132 100 133 128 189 125 143 126 104 103 99 85 78 70 79 84 99 108 128 136 143 174 227 270 264 200 166 137 147 196 177 112 132
-22 8 31 335 204 214 239 235 236 139 154 89 112 122 154 204 191 214 184 130 95 70 67 93 108 154 183 137 148 160 190 209 217 168 102 151 133 117 123 131 127 131 113
-0 6 175 159 237 213 275 292 245 175 178 205 192 123 134 129 136 128 111 106 132 110 115 106 104 173 255 224 147 161 134 124 80 81 110 132 110 113 117 112 105 115 107

GFSSE_con_3kmhel_102.txt.gz
Helicity
44 38 40 85 135 158 148 150 141 138 129 120 109 116 118 110 87 68 53 56 54 44 54 71 51 41 42 48 54 61 59 48 44 46 48 40 24 24 17 7 -12 -12 20
123 76 58 78 119 145 156 148 142 138 128 108 100 87 88 92 73 54 40 50 41 68 71 72 53 42 42 47 45 41 40 35 27 31 29 28 20 16 19 22 5 1 13
120 75 60 72 111 145 150 138 138 128 111 95 77 67 71 68 62 53 44 63 74 103 82 65 53 39 32 35 32 27 13 10 12 12 18 7 0 25 20 27 41 39 32
131 93 93 86 121 135 142 141 124 113 106 94 69 60 56 60 63 56 57 73 99 99 72 59 50 40 27 29 22 9 0 -23 -14 0 7 9 -3 16 20 21 20 30 31
126 119 127 130 129 130 115 116 104 100 99 90 70 63 61 55 50 68 90 102 109 115 81 58 52 41 29 21 25 27 31 37 24 6 4 4 -2 2 10 14 15 21 22
99 91 135 172 146 137 113 101 91 75 96 83 82 64 70 64 79 85 106 117 126 101 80 61 50 41 24 23 25 29 24 23 14 3 3 4 -5 14 17 17 20 21 20
92 80 103 141 160 128 115 103 81 69 78 89 93 77 70 73 79 97 111 105 111 83 77 62 47 35 22 21 31 43 30 13 -1 5 6 3 1 21 21 22 24 25 25
90 42 26 88 152 140 113 97 81 69 64 84 97 72 61 80 99 105 103 94 120 103 80 60 41 28 21 20 26 36 32 18 6 6 3 1 13 24 27 29 30 26 25
135 70 46 96 153 159 121 91 71 66 68 67 100 84 62 77 118 112 104 87 79 87 71 51 35 27 21 21 24 30 32 18 4 -4 0 -1 14 27 27 25 25 26 26
230 152 128 158 144 187 170 99 81 80 82 62 92 109 76 92 107 99 99 78 83 79 61 42 29 23 19 16 17 19 42 31 9 4 4 -2 23 24 24 23 22 22 23
218 228 216 223 197 173 187 137 101 84 78 91 97 101 124 124 111 98 120 87 110 97 66 42 25 20 13 11 11 17 29 19 12 7 8 7 26 27 22 19 18 17 18
149 192 225 236 228 225 213 186 148 129 130 152 151 123 140 148 178 165 116 99 109 106 77 33 24 18 21 14 9 9 16 22 11 20 11 16 25 26 22 17 13 9 14
143 205 178 253 269 251 202 222 204 183 182 201 183 187 195 216 256 202 130 126 120 110 74 41 30 21 12 12 9 7 7 13 12 7 2 21 21 23 21 16 8 9 9
101 140 208 245 333 315 270 241 220 218 195 221 224 229 248 251 225 244 161 148 134 106 65 37 28 18 8 2 10 13 1 18 21 24 3 13 14 18 15 12 10 7 8
131 144 178 242 250 297 318 298 235 208 225 194 241 252 278 259 234 226 155 141 125 98 64 43 33 23 9 5 5 10 8 10 9 21 27 11 16 10 7 8 10 6 2
150 136 156 172 241 279 268 253 197 170 164 206 200 231 288 264 195 184 176 163 121 95 65 48 35 26 16 24 16 22 8 11 23 23 19 24 22 22 19 3 1 2 3
186 132 126 137 151 177 229 248 263 247 279 182 199 188 258 243 216 215 168 116 106 88 72 53 40 37 24 33 16 24 37 19 31 31 32 58 52 5 20 17 10 15 16
200 172 158 126 142 136 151 153 187 220 281 271 112 152 180 142 244 298 98 116 103 91 71 63 59 50 47 53 44 31 35 44 36 46 46 54 78 72 40 24 39 40 33
195 190 187 137 123 160 177 182 176 213 258 267 352 129 136 107 96 125 56 77 119 99 90 79 81 87 82 70 60 51 46 42 39 56 53 59 84 86 88 58 60 68 53
166 159 174 119 116 107 148 173 178 195 222 271 271 279 150 182 164 157 105 121 105 120 105 113 115 103 101 85 72 56 46 38 30 33 71 90 94 127 137 105 110 79 86
171 167 133 150 130 165 153 163 181 165 255 393 440 318 223 174 173 164 149 130 130 134 119 122 130 106 94 98 114 79 57 34 6 25 81 149 167 179 154 154 112 92 96
131 152 109 105 127 139 222 273 225 217 322 417 387 378 332 255 184 176 177 177 165 172 152 147 158 157 117 126 110 118 94 86 47 29 79 170 263 273 201 149 115 116 76
125 139 146 117 68 118 227 242 242 312 274 255 222 246 240 143 153 163 173 173 172 158 149 147 154 143 160 129 97 119 136 134 130 136 161 269 301 283 157 144 136 106 73
114 154 97 77 87 53 111 163 201 108 192 277 197 268 165 126 130 113 137 147 161 172 161 153 175 182 182 159 148 110 184 177 145 120 202 255 281 263 206 140 131 118 123
129 114 89 58 122 113 53 122 209 226 163 204 262 221 167 114 136 101 126 149 157 168 143 117 132 128 115 122 190 269 241 266 199 250 168 200 235 186 139 141 140 142 135
7 59 -101 59 103 127 64 118 189 191 240 267 181 199 243 224 170 174 176 158 144 137 182 187 85 81 95 126 190 209 253 265 202 257 119 119 156 136 157 106 158 151 136

GFSSE_con_3kmhel_105.txt.gz
Helicity
140 149 58 11 39 95 142 171 183 184 189 189 170 153 132 103 89 80 68 54 55 56 86 76 53 50 52 50 36 41 43 39 44 56 41 24 25 20 11 1 6 -9 13
139 129 66 32 45 77 132 154 172 179 163 155 150 139 118 94 79 71 67 65 55 90 101 66 58 48 49 50 47 37 32 32 35 45 32 18 9 30 24 6 3 -1 11
142 147 98 52 54 65 111 141 151 162 155 131 117 112 100 80 62 62 59 63 78 111 103 75 68 58 42 39 34 32 23 14 20 26 23 11 4 15 26 22 29 32 27
149 145 129 75 68 70 89 117 127 134 129 106 85 86 84 72 62 56 57 78 101 111 95 87 76 55 39 29 14 1 2 10 9 14 11 15 10 21 20 21 26 29 34
145 135 139 139 114 98 97 107 102 106 103 86 84 79 77 63 62 51 69 88 126 118 96 91 77 55 38 22 11 2 1 10 13 9 10 14 6 7 14 14 12 13 18
92 102 121 145 148 146 115 94 88 83 78 69 81 76 61 64 73 77 93 117 133 111 100 95 84 60 35 23 15 23 29 22 17 9 6 5 -3 14 15 17 15 14 16
65 68 105 120 139 153 138 103 80 72 63 63 65 70 63 60 76 101 119 133 125 103 95 93 80 61 45 31 22 15 18 15 6 7 7 2 -2 20 20 18 19 19 20
112 93 80 73 112 138 145 114 93 63 60 64 64 49 53 81 108 124 131 116 109 102 91 82 71 59 46 41 38 26 20 15 5 8 4 5 13 21 23 24 20 22 26
130 115 78 47 69 122 145 138 100 89 68 80 75 54 60 74 109 124 116 117 102 97 88 75 65 51 43 38 35 32 18 21 9 3 6 2 14 24 27 24 24 22 25
134 118 89 75 89 106 121 137 121 104 93 90 98 85 78 78 104 121 118 126 121 99 91 72 56 41 33 30 32 30 18 24 14 9 7 3 23 32 28 25 21 23 25
113 108 112 87 112 131 139 121 117 105 110 99 107 109 94 115 127 119 114 105 121 107 87 70 51 34 31 25 26 36 41 18 13 10 7 -5 25 34 30 25 19 18 22
79 109 116 83 160 152 146 165 164 139 136 124 149 152 143 142 128 128 79 109 124 113 94 77 53 41 33 26 24 38 25 22 15 16 9 -3 16 27 26 22 18 14 12
150 68 76 118 134 176 183 200 214 174 164 148 159 179 181 160 161 146 134 130 151 158 137 107 73 46 29 27 26 26 25 17 18 12 8 -2 6 16 20 19 17 12 8
159 164 97 112 127 186 202 192 179 159 160 166 161 193 223 221 197 192 177 142 146 148 145 116 84 53 29 26 28 23 24 16 16 14 8 -6 -5 2 11 10 11 10 10
124 181 175 134 155 164 201 192 188 176 167 168 196 193 195 224 213 237 202 172 139 135 127 118 98 57 30 22 22 16 13 16 11 17 13 -3 -4 -6 0 3 9 5 6
139 128 160 180 141 193 210 180 199 198 165 185 212 210 175 186 240 261 249 165 168 139 106 95 92 70 37 35 21 15 6 27 24 17 20 12 -7 -15 1 4 14 3 5
164 140 132 167 160 167 207 218 192 139 173 145 189 278 239 194 245 280 301 227 125 165 119 87 87 80 59 44 24 28 29 33 42 31 33 41 45 0 -3 1 16 18 22
185 179 180 159 168 173 174 177 190 171 154 171 204 236 287 240 249 289 304 252 127 157 132 106 94 82 60 49 45 38 45 42 39 38 46 51 74 67 36 20 28 50 57
183 211 224 217 182 154 151 151 142 137 171 190 183 171 137 198 253 263 302 339 142 133 139 103 86 96 82 63 55 49 49 50 47 49 44 48 67 98 94 81 71 89 92
134 225 218 244 215 187 204 214 195 178 172 174 184 196 191 215 249 193 199 168 109 99 62 92 86 109 86 86 83 78 67 56 49 37 35 49 65 89 111 128 147 133 88
76 215 219 237 243 252 243 211 212 206 205 214 204 201 222 286 325 386 368 193 203 21 75 78 109 112 105 121 131 99 82 62 40 25 -4 12 31 84 125 183 189 162 112
88 137 207 216 176 190 203 170 188 168 184 195 195 223 283 277 283 295 326 208 132 36 -16 90 128 169 134 149 155 163 140 122 87 60 57 68 85 121 194 210 195 162 131
107 115 194 185 184 152 118 150 151 169 177 170 193 236 307 309 339 288 244 239 265 155 69 90 146 160 188 173 170 183 193 149 163 147 110 143 192 234 254 249 210 166 144
89 134 184 173 160 154 149 138 148 139 178 228 272 341 264 348 362 263 245 282 200 154 119 131 124 181 209 184 203 149 172 173 173 137 132 160 234 297 333 326 241 174 145
92 110 105 155 167 165 171 158 175 179 316 345 350 326 351 338 251 242 239 292 242 110 111 140 162 184 213 207 209 169 163 170 193 186 121 170 203 263 303 269 250 204 134
91 128 158 146 145 177 176 140 103 215 307 255 424 306 203 151 211 169 209 231 220 123 104 126 124 138 133 164 78 151 216 184 184 208 215 176 199 215 211 250 262 163 154

GFSSE_con_3kmhel_108.txt.gz
Helicity
87 140 164 115 62 90 109 130 150 174 189 181 152 135 120 95 72 60 55 53 56 83 90 82 59 52 37 45 46 39 37 45 52 41 25 12 2 7 11 8 -1 -9 13
90 142 157 100 55 76 90 123 144 154 163 161 136 124 108 90 73 61 52 49 57 103 78 83 65 69 75 55 36 34 29 37 44 38 22 18 20 12 1 4 -0 2 15
90 114 113 121 74 68 90 113 135 144 140 139 125 115 98 80 73 64 55 49 80 94 85 73 66 65 52 43 29 21 20 18 22 29 32 7 -5 32 28 15 17 22 27
78 109 106 137 86 78 92 112 127 122 110 103 99 96 87 74 64 63 53 68 97 102 90 74 76 60 45 34 23 15 9 8 11 17 15 12 -4 14 16 16 21 26 30
83 122 112 115 104 104 108 108 116 114 97 78 68 79 69 65 61 52 67 90 123 107 88 83 63 51 47 27 9 5 5 6 9 12 8 7 -6 2 6 11 9 11 13
78 111 94 95 110 99 117 112 102 92 88 65 58 55 59 55 61 69 82 121 136 100 93 73 57 51 41 35 24 18 16 14 12 6 4 1 -3 11 11 11 13 15 15
72 90 92 87 103 109 89 111 105 82 70 59 65 66 49 41 54 89 106 148 129 95 88 83 65 50 39 30 29 29 23 17 5 3 4 -1 -7 19 20 20 20 21 22
95 87 70 47 51 87 117 99 91 89 72 69 69 56 44 47 68 106 130 143 119 96 91 84 75 52 35 30 24 27 23 17 5 5 3 -0 10 24 24 26 26 26 27
92 102 102 74 48 38 58 97 95 91 81 74 69 60 50 41 80 109 117 126 113 111 101 82 67 56 40 37 27 27 20 22 13 2 3 -0 9 27 29 27 28 27 27
138 92 116 88 73 65 64 43 80 91 93 92 96 87 80 76 75 109 112 99 103 117 114 91 65 57 45 42 36 21 25 29 15 7 3 -1 9 28 34 31 31 29 26
128 118 113 116 95 95 92 80 65 70 90 103 123 118 117 138 120 130 123 97 92 103 112 102 81 62 50 45 39 30 30 21 19 11 5 -5 11 26 27 27 25 25 21
216 154 94 105 121 132 116 119 119 104 91 119 134 146 172 171 168 139 122 111 93 88 93 89 83 78 69 55 42 44 39 24 13 12 10 -3 4 17 23 23 17 19 19
224 166 99 87 71 92 125 149 146 148 133 132 137 155 183 171 185 182 141 116 114 106 108 93 89 90 79 64 53 34 27 24 18 12 8 -4 -2 7 15 16 14 11 13
193 202 130 74 82 98 142 145 141 152 131 144 151 169 180 213 190 192 151 133 148 153 128 101 84 72 76 65 54 40 25 21 20 14 6 -4 -4 -11 2 5 8 9 9
178 182 171 105 79 101 102 136 119 140 153 133 169 166 192 218 195 195 151 160 183 174 142 119 87 76 59 61 52 44 31 19 19 24 20 2 -5 -15 -22 -7 2 7 10
151 147 154 136 123 113 118 109 130 131 157 164 166 181 196 216 207 198 185 175 188 159 132 142 102 79 54 59 46 34 24 22 20 19 24 17 -0 -10 -21 -10 -11 1 4
180 160 137 136 136 151 138 149 120 143 163 142 148 172 198 207 213 234 252 209 205 165 162 121 141 99 74 54 34 37 30 29 28 24 31 32 32 19 18 1 -2 3 19
189 195 160 159 133 158 160 164 184 157 151 137 130 128 146 208 229 255 256 249 247 194 158 156 145 103 89 57 38 41 40 41 36 32 36 37 43 48 43 25 22 14 32
120 202 216 182 152 156 163 173 171 163 159 147 143 134 169 213 264 295 355 320 308 253 176 91 155 92 102 56 48 49 51 46 41 47 39 42 43 58 70 57 65 55 51
75 165 243 233 203 169 204 205 211 209 184 163 155 143 127 186 211 261 293 375 260 316 293 129 125 91 91 78 59 63 64 59 57 55 52 49 39 33 41 53 95 115 95
109 139 175 253 243 251 277 253 256 226 177 197 165 153 142 145 162 211 251 256 295 216 252 209 252 160 125 88 87 79 74 64 67 65 69 58 44 48 62 93 144 187 196
120 132 133 220 245 266 276 277 282 221 176 175 170 158 173 176 195 226 273 290 273 318 335 400 342 130 16 121 113 122 98 111 100 89 99 88 84 81 86 105 159 215 267
92 128 80 122 233 242 230 272 287 252 239 213 172 146 162 193 202 217 268 345 363 362 378 304 305 272 95 77 147 148 119 114 142 161 147 121 109 106 126 180 220 266 318
21 53 26 43 156 206 175 214 212 231 232 208 189 161 169 185 223 247 326 360 368 350 306 258 298 150 25 40 174 138 175 157 158 183 184 153 91 98 122 211 257 354 312
68 43 13 13 108 177 184 175 194 192 200 182 156 152 172 212 228 347 419 337 334 332 304 247 243 219 87 108 165 208 231 191 153 170 120 133 116 125 134 200 220 309 311
88 67 52 68 122 169 155 185 204 166 135 163 185 151 132 177 236 258 324 303 292 300 239 242 217 196 49 126 148 170 155 131 154 151 197 154 122 121 181 221 269 312 269

GFSSE_con_3kmhel_111.txt.gz
Helicity
-10 51 100 140 126 115 76 86 87 94 106 108 95 95 86 70 64 67 59 41 42 47 55 58 43 50 69 45 40 33 43 42 32 29 15 -4 4 12 5 -2 -1 6 16
12 69 85 122 110 112 64 69 94 116 109 95 88 93 88 73 59 56 46 42 72 68 60 50 45 54 49 45 36 32 29 29 31 23 16 22 1 6 4 -1 -5 8 13
33 36 88 102 97 104 77 82 88 102 103 97 81 80 78 69 53 43 36 46 75 53 70 65 78 71 59 44 36 28 15 10 11 8 -1 8 13 23 15 4 12 26 23
3 16 61 81 112 106 83 86 88 84 92 93 78 71 65 54 49 41 34 62 73 71 56 63 52 44 46 38 27 21 9 0 -2 -2 -1 -1 3 14 18 19 27 27 29
12 29 39 65 82 117 109 86 90 81 79 81 70 64 52 43 39 35 52 68 76 92 67 85 50 35 31 21 21 16 12 5 -1 -4 -2 -3 -4 5 10 9 12 15 16
32 27 39 48 74 101 109 99 91 77 64 51 61 61 44 32 30 34 68 96 133 84 92 68 48 34 14 3 6 12 12 9 1 -1 -3 0 0 8 10 12 14 17 19
63 48 29 50 55 84 91 100 102 80 56 49 64 51 50 37 32 46 91 117 116 90 75 60 46 34 26 14 14 17 13 10 1 0 4 3 6 15 17 20 21 22 22
119 58 36 44 52 53 68 88 96 82 63 58 59 48 38 49 65 72 101 125 100 78 68 57 47 41 26 22 25 21 19 12 3 6 6 8 11 20 23 24 25 24 24
165 122 40 35 24 35 41 58 64 65 69 70 66 50 45 37 49 93 106 121 85 65 66 61 47 40 33 22 29 24 21 19 12 7 9 9 9 24 28 26 25 27 27
153 136 107 60 37 22 31 56 56 52 57 72 74 62 57 53 71 97 121 108 102 81 63 59 47 39 42 38 35 29 29 27 16 13 11 15 7 25 29 30 29 26 21
228 189 131 113 53 38 31 33 50 52 54 70 70 69 70 73 70 69 100 110 102 98 84 59 42 38 46 49 41 34 34 18 17 16 16 9 6 24 29 25 24 22 22
228 255 192 102 90 64 52 49 52 49 57 50 53 69 85 82 97 103 111 123 105 102 97 81 60 48 38 37 43 42 17 20 16 16 16 8 7 16 22 19 18 18 19
183 197 198 169 94 76 77 90 108 97 88 85 60 73 81 97 109 125 117 119 92 89 90 83 75 52 40 33 34 33 33 24 18 14 9 3 1 3 14 14 16 15 16
174 180 209 161 105 82 75 91 123 124 112 108 94 92 108 118 121 132 130 103 92 94 103 96 95 69 57 43 28 24 26 24 21 18 9 -1 -5 -7 -5 8 8 7 7
144 168 184 162 129 113 85 72 111 120 131 112 119 112 116 122 134 139 121 108 94 90 103 105 97 79 69 47 38 27 23 21 17 19 16 7 -8 -12 -19 -12 4 3 2
126 173 165 172 145 118 117 109 102 111 107 132 126 131 108 132 141 149 129 112 104 94 115 126 105 82 78 60 45 32 24 23 19 18 21 15 4 -1 -12 -15 -16 -9 0
145 175 182 177 156 134 104 110 121 107 112 115 125 154 121 114 122 155 154 130 117 139 142 123 116 110 97 63 59 39 36 21 16 18 26 27 26 16 8 -1 -3 -10 -5
122 159 205 220 175 174 146 146 133 146 131 122 120 154 141 145 139 168 181 163 178 215 160 154 134 109 117 91 61 57 38 37 23 16 28 38 42 41 33 19 28 15 11
102 132 172 220 228 190 180 164 154 131 150 130 136 103 116 128 131 173 185 174 226 239 204 185 137 119 97 112 70 71 36 45 36 36 29 32 33 43 42 29 34 40 33
111 113 148 188 229 227 206 194 209 192 163 136 141 116 103 126 119 158 163 190 225 230 238 228 243 213 89 93 81 53 33 44 49 39 34 50 45 40 33 21 37 48 63
99 95 91 127 208 272 259 249 249 234 202 182 151 123 111 100 99 154 187 162 173 199 237 196 213 248 206 236 246 34 71 20 39 40 57 58 58 41 42 18 26 46 81
75 54 71 86 151 267 294 253 279 248 214 187 176 166 138 131 127 155 179 177 183 191 195 207 201 219 239 332 350 200 193 49 36 75 88 88 58 83 59 49 47 74 111
78 49 17 87 114 175 267 297 295 301 271 247 206 164 138 142 149 157 161 208 237 246 239 245 241 304 235 319 331 455 315 179 29 54 94 127 96 108 108 88 91 119 150
37 23 -15 37 80 120 181 257 251 288 299 257 218 186 176 139 132 140 138 163 207 264 252 286 311 274 280 322 375 434 255 148 58 78 75 119 136 136 92 109 129 159 217
54 35 7 20 48 48 104 186 232 243 237 210 192 170 153 136 121 129 143 166 226 291 315 344 368 349 360 312 341 382 305 135 180 125 146 165 146 132 127 98 98 166 185
58 62 34 46 57 40 62 132 156 192 191 196 193 188 174 171 161 137 159 183 215 260 342 384 332 284 289 246 269 241 318 334 84 146 122 65 125 58 87 118 118 133 245

GFSSE_con_3kmhel_114.txt.gz
Helicity
-6 4 38 80 63 77 66 25 35 42 63 64 55 57 62 57 52 51 41 29 17 32 49 60 42 32 46 36 32 33 46 33 23 14 -1 8 14 5 -1 -5 -1 11 17
80 15 57 79 61 69 63 34 42 66 68 57 60 59 59 59 54 46 30 38 25 31 33 30 37 63 46 36 36 39 35 27 18 10 7 7 5 7 4 -10 -6 10 13
113 2 59 78 63 60 60 66 48 67 61 56 60 61 58 52 49 43 29 45 44 38 22 36 42 43 35 25 22 25 23 20 9 -9 -47 -2 13 7 -0 -4 4 13 25
40 11 21 58 64 61 70 74 65 61 54 53 49 53 51 42 30 29 21 44 28 50 41 63 66 59 30 21 11 9 5 9 4 -7 -7 2 9 25 26 27 26 27 25
3 -7 11 46 65 57 65 89 57 55 51 56 53 49 37 35 20 14 14 42 46 50 42 79 52 34 26 12 3 -4 -1 -0 -6 -21 -0 -5 2 12 17 16 15 17 19
19 1 24 9 40 70 60 78 78 59 55 68 55 50 26 26 22 13 15 48 74 78 73 61 37 25 11 7 4 -2 -4 -5 -24 -1 1 3 5 9 12 18 20 18 17
103 48 12 7 25 58 79 81 72 66 64 57 43 37 29 21 18 42 44 73 97 96 63 40 26 12 -1 -9 -0 5 3 -8 -12 3 8 9 21 16 22 23 23 22 24
165 122 19 29 30 37 57 67 64 59 56 52 48 36 30 20 27 51 82 89 97 84 58 35 18 10 3 4 9 13 10 -12 -6 13 20 19 32 28 29 27 25 24 24
155 174 86 45 38 39 37 38 47 52 48 46 53 42 39 27 50 60 77 100 82 60 49 46 26 11 4 8 16 17 13 -6 5 22 21 25 27 33 32 30 25 25 27
180 194 182 141 69 48 40 41 29 34 30 41 52 48 40 35 45 61 73 98 73 56 46 51 49 27 11 10 22 21 23 4 13 22 24 44 28 34 33 30 27 28 29
150 173 200 160 109 62 46 49 50 41 37 42 42 47 44 29 42 31 58 113 78 70 56 55 56 51 48 37 29 25 9 10 19 21 26 56 25 27 28 30 28 26 23
155 174 147 166 124 107 61 41 46 47 50 43 30 26 31 18 32 30 69 108 96 81 76 68 65 67 40 33 29 21 2 17 19 25 31 40 17 16 22 23 21 18 17
117 140 145 127 136 113 99 74 65 66 66 63 46 45 40 48 47 53 73 110 101 88 74 75 73 45 26 32 33 24 17 17 21 25 35 29 7 3 14 16 15 15 11
67 124 147 142 131 106 109 106 90 87 74 75 71 51 58 61 66 49 68 78 79 92 64 71 75 55 48 31 29 23 24 25 29 30 31 34 11 3 -1 10 12 9 5
61 79 140 139 132 131 113 127 128 97 105 76 72 60 59 55 65 82 83 88 87 92 79 76 85 82 55 41 38 33 24 21 19 31 33 49 21 10 1 -8 -4 2 1
77 69 107 144 147 136 135 139 128 130 97 98 93 77 62 66 65 74 75 83 94 97 77 67 82 87 81 70 51 38 33 28 23 24 32 40 41 26 9 -3 -15 -13 -7
97 74 96 145 155 153 144 155 170 164 119 124 120 92 79 94 72 69 68 70 70 89 83 113 93 98 102 73 61 51 52 34 30 27 29 35 47 47 28 5 -10 -14 -9
90 109 100 142 186 178 164 158 165 175 153 143 144 128 103 117 75 89 75 70 69 78 89 101 103 102 117 105 87 73 58 63 42 34 34 38 41 52 61 36 20 10 -0
80 104 121 139 158 198 186 171 154 149 171 152 137 144 120 120 102 97 89 87 72 88 94 175 148 129 118 133 106 93 63 71 68 59 41 35 39 48 58 54 42 36 28
91 92 109 130 148 185 231 215 206 186 201 202 147 123 106 139 113 89 81 111 116 125 108 165 162 170 105 180 145 153 115 101 86 68 53 56 45 48 50 41 38 36 29
90 94 84 104 106 151 208 269 246 223 224 248 204 134 121 114 137 91 86 101 112 127 138 110 111 105 152 176 206 140 204 146 118 80 69 80 72 59 61 69 61 26 46
77 72 73 80 91 110 164 206 242 237 213 223 221 202 144 114 110 183 116 124 107 141 92 127 144 130 86 113 152 106 160 173 237 188 94 83 40 83 87 71 63 48 46
85 73 64 68 84 93 116 218 213 258 257 277 252 260 168 126 115 127 139 147 139 113 163 138 140 135 152 151 140 198 230 248 248 266 172 158 65 70 131 100 83 86 90
120 73 70 73 62 75 104 153 173 257 283 289 251 199 180 168 172 152 126 139 105 155 171 163 139 145 164 194 241 229 220 295 257 265 309 314 110 84 121 122 109 88 94
99 74 60 52 41 52 86 145 151 184 220 200 199 177 173 153 122 113 114 109 150 159 149 142 162 176 190 211 306 263 259 305 252 294 287 283 96 53 143 142 106 89 105
83 74 58 37 34 43 55 99 124 129 211 202 182 184 182 162 147 122 115 111 126 143 152 170 158 182 203 281 328 333 346 368 316 354 329 223 201 128 129 139 132 80 152

GFSSE_con_3kmhel_117.txt.gz
Helicity
39 27 37 37 36 19 28 27 21 41 56 50 42 42 43 42 38 40 37 25 27 23 33 35 29 26 30 22 29 46 48 34 24 14 21 21 13 7 7 4 3 11 17
68 6 39 41 46 22 13 23 20 35 47 41 46 42 46 38 36 27 17 13 14 11 21 6 20 52 34 27 32 32 26 24 14 2 4 10 8 7 9 26 23 10 17
118 30 46 55 51 28 22 24 36 40 41 25 38 53 41 36 28 17 15 4 -2 11 4 9 31 51 32 30 26 15 17 13 -5 -20 -27 -5 15 5 9 3 9 27 28
139 49 12 57 53 41 39 33 43 43 38 31 35 57 36 30 24 11 7 14 13 6 5 15 40 28 24 22 16 12 8 3 -4 -24 -27 -10 17 39 37 36 31 27 20
130 38 28 73 38 49 47 44 52 53 31 24 37 46 30 19 10 8 2 2 27 29 41 65 42 18 11 8 8 11 8 -4 11 59 43 37 9 23 27 25 16 25 38
110 82 51 63 40 29 51 48 55 56 37 24 35 33 40 9 -0 -6 11 25 35 60 60 50 25 11 4 1 3 7 7 -10 17 15 20 24 45 18 25 29 27 25 26
107 105 56 42 25 27 32 44 40 51 38 36 48 36 24 7 -1 2 20 48 72 85 59 34 24 9 1 -1 2 4 3 -9 33 9 16 23 30 24 27 29 29 30 29
137 128 120 38 23 27 35 39 37 44 43 38 47 32 17 9 6 11 40 61 79 79 52 36 25 14 -0 -12 -8 7 3 -14 3 16 25 42 34 33 33 30 28 30 30
153 183 161 69 33 25 34 35 35 42 34 36 43 29 21 16 14 32 52 58 69 71 51 32 21 22 20 18 20 12 2 -16 11 26 18 29 29 33 33 31 30 30 27
105 148 163 172 72 46 40 45 38 33 31 37 45 32 21 20 20 33 45 62 64 69 56 39 27 24 24 28 30 18 6 -11 -1 23 21 62 45 37 36 34 31 28 27
90 110 151 170 195 125 59 63 59 44 38 39 41 37 37 24 26 32 28 82 75 67 57 49 44 39 40 41 36 25 7 -2 14 18 31 64 46 34 36 35 32 30 28
89 90 127 137 160 144 176 102 64 56 40 31 31 27 26 15 27 30 53 107 89 75 63 58 61 64 38 24 27 25 6 3 21 30 57 67 47 32 35 33 29 26 23
51 72 84 118 125 142 116 130 107 77 76 76 47 42 36 29 65 59 94 91 91 88 72 70 69 55 34 24 36 23 13 17 26 32 71 63 42 26 25 29 24 19 14
54 64 80 87 111 120 137 119 118 134 122 106 100 87 81 67 87 93 88 89 103 109 79 81 75 61 41 37 41 32 35 36 33 41 60 67 47 31 22 22 20 10 5
63 50 63 86 75 95 126 126 128 134 132 110 137 109 110 101 100 76 118 81 81 81 71 87 74 78 60 60 53 45 44 37 31 45 44 64 52 35 20 12 7 7 1
72 78 66 68 111 102 116 128 143 144 129 127 159 127 98 97 108 96 101 112 100 95 83 108 70 79 85 68 59 56 49 51 47 51 54 57 57 56 28 9 2 -4 1
75 90 97 89 93 134 119 124 120 166 171 163 165 158 149 134 130 123 102 130 127 113 95 105 85 64 88 102 90 71 63 52 62 51 60 64 71 58 63 27 9 4 3
67 84 94 104 98 125 171 155 144 120 175 202 184 169 152 168 132 176 143 124 116 117 122 107 131 148 139 112 105 105 100 82 67 60 62 66 78 62 72 63 47 23 14
74 74 93 94 98 100 135 184 171 147 174 204 195 188 146 141 151 161 183 133 116 124 129 111 99 91 101 128 121 141 113 132 91 90 76 77 80 88 89 87 76 69 46
86 72 87 105 87 99 133 176 194 199 155 207 209 172 122 134 174 199 195 157 141 152 135 125 111 116 110 100 138 108 98 122 122 127 104 108 111 109 108 94 116 96 62
84 81 76 105 108 124 153 180 216 215 219 209 219 165 128 133 168 175 187 171 118 151 152 112 112 108 118 116 112 110 126 124 120 143 167 171 135 131 118 120 111 116 108
91 76 78 75 87 106 145 172 178 199 169 200 192 194 171 133 139 146 154 160 169 221 142 104 114 134 109 119 174 112 98 91 91 104 167 172 176 173 164 135 124 125 128
162 108 107 97 85 86 95 135 200 197 177 181 207 210 217 187 145 144 151 163 156 179 194 102 102 133 148 153 132 170 166 190 158 174 161 202 174 238 196 139 147 160 155
137 207 148 146 110 99 106 119 113 208 178 177 226 224 237 199 181 162 167 164 157 182 159 165 147 140 131 157 188 197 140 128 244 208 260 235 203 176 196 217 142 155 160
142 143 168 134 115 104 102 100 124 151 157 167 201 214 213 213 222 210 169 148 159 143 131 126 123 126 136 148 174 206 194 183 188 295 321 345 309 230 217 243 231 117 168
81 112 146 91 83 81 79 72 81 104 139 146 164 180 214 212 201 195 177 154 134 140 144 142 124 131 145 156 161 186 235 293 291 291 343 304 277 265 224 197 222 178 187

GFSSE_con_3kmhel_120.txt.gz
Helicity
19 -6 38 38 41 26 20 14 23 34 38 26 30 33 35 31 25 20 17 12 21 13 15 18 26 26 27 33 42 54 39 29 29 19 15 18 16 34 36 -16 23 -3 15
148 -4 38 36 43 24 21 11 23 30 31 27 23 28 34 31 27 18 8 6 1 4 2 -1 25 28 35 42 39 38 29 25 14 5 4 14 17 21 37 41 15 19 31
196 27 38 52 52 41 22 13 22 32 34 13 27 33 32 26 17 6 7 -3 -6 -6 -2 17 32 28 30 38 37 25 24 21 -6 -19 -12 -5 8 27 30 22 38 28 33
123 53 31 51 51 43 28 22 17 35 30 12 20 35 36 18 10 -5 5 -6 11 -4 10 21 40 25 23 24 19 18 13 11 14 -31 -47 -8 19 37 36 32 46 35 34
138 127 28 62 50 40 44 33 27 33 29 24 24 22 40 14 4 -5 0 -2 17 15 40 63 41 25 19 14 16 13 5 25 66 78 6 17 28 36 43 35 37 37 29
130 136 72 50 45 39 41 41 39 33 41 30 24 17 39 18 2 -1 2 3 34 54 65 50 36 26 18 11 10 11 8 36 78 21 38 47 29 28 35 36 35 33 29
102 129 84 41 31 20 26 33 39 40 32 26 24 30 33 15 0 3 8 16 47 62 59 36 32 26 20 14 14 12 6 16 49 16 23 21 24 28 32 35 34 32 30
83 157 85 40 33 28 27 21 30 33 37 27 26 41 36 17 5 9 17 34 51 63 52 34 30 23 12 8 14 14 5 -4 35 16 44 34 28 31 35 37 35 34 33
107 131 142 108 47 43 37 36 33 32 32 26 24 42 30 17 11 20 24 44 48 69 56 44 31 19 10 1 21 17 6 -12 9 9 33 34 30 31 35 34 34 36 38
89 117 151 181 133 56 65 53 47 46 45 37 37 40 30 20 15 32 37 42 52 65 63 52 39 31 23 32 29 17 5 -13 18 16 59 43 35 38 40 38 37 39 38
55 84 92 146 162 198 89 73 64 66 61 63 63 52 41 37 32 29 32 47 55 67 75 61 50 44 35 32 28 20 9 -7 2 17 68 68 50 43 44 43 40 38 36
39 53 78 89 127 161 170 135 109 94 104 100 94 84 73 48 37 41 47 62 61 74 80 73 65 60 47 45 39 27 17 -2 26 48 60 61 55 42 43 41 36 32 29
26 25 40 75 94 124 152 152 131 119 128 121 91 80 93 59 38 83 126 110 108 90 99 91 86 89 54 33 63 50 29 13 24 59 70 66 57 38 33 35 31 25 20
43 28 41 49 82 103 116 135 123 114 122 139 105 95 127 82 96 132 169 141 137 119 96 93 96 83 62 37 65 52 44 56 63 63 87 85 67 48 30 27 28 21 13
62 61 44 46 55 83 117 120 122 111 141 128 129 111 137 148 139 190 185 168 156 147 105 110 92 85 71 52 68 87 62 73 59 69 100 84 77 68 40 22 16 15 10
73 79 88 65 54 76 96 127 138 137 123 160 154 152 165 171 181 188 182 181 154 148 98 98 95 96 102 74 98 82 74 80 76 66 101 97 85 71 67 39 23 13 7
74 88 95 100 76 77 99 108 141 150 137 136 164 186 180 170 176 151 205 222 174 154 119 92 132 101 115 115 114 95 102 83 85 86 103 127 106 78 74 62 50 32 23
71 85 111 109 119 101 112 125 145 160 166 165 180 181 184 198 169 190 202 241 220 212 174 142 135 177 124 126 132 136 125 110 102 98 104 127 159 140 97 83 77 65 52
80 84 86 105 122 134 132 141 141 159 174 181 180 189 185 188 180 163 203 262 273 228 207 174 122 146 190 169 165 136 104 111 132 122 107 117 127 163 176 115 102 92 91
158 113 101 98 120 124 151 153 164 169 184 170 199 186 174 185 161 179 223 252 250 255 237 250 220 154 164 179 171 135 132 119 153 127 141 116 120 149 189 173 143 110 88
127 139 139 131 123 142 188 198 188 190 200 229 177 177 199 180 185 220 226 233 246 282 221 239 218 160 141 181 200 154 152 137 94 96 137 125 143 151 186 192 198 185 155
121 148 165 134 143 145 169 187 171 164 174 202 159 176 186 170 157 190 240 254 223 242 218 204 197 229 177 170 199 176 145 115 112 114 110 137 137 158 181 199 230 215 196
115 155 204 265 173 164 148 168 175 155 169 219 208 151 167 161 156 152 196 246 232 228 214 231 218 201 207 150 164 215 162 135 79 106 129 150 139 212 233 213 247 258 240
132 153 196 214 220 178 183 184 174 167 150 205 208 142 163 176 167 165 153 196 239 255 233 198 182 175 213 154 220 157 113 163 147 153 140 124 163 206 215 245 232 225 261
64 118 169 149 197 161 176 174 170 157 146 161 163 122 121 179 193 182 155 154 175 237 213 227 224 177 192 180 168 188 173 147 151 207 161 184 268 298 288 283 269 254 239
33 87 104 111 137 125 129 124 128 122 121 139 145 126 110 131 178 194 170 159 169 183 197 215 206 185 182 158 140 151 195 214 205 222 230 236 225 330 356 290 291 293 273

GFSSE_con_3kmhel_123.txt.gz
Helicity
36 -2 37 40 41 29 26 25 26 28 30 28 29 38 34 30 29 25 19 22 27 32 25 20 24 29 32 35 29 58 42 36 25 24 30 38 56 45 19 11 4 11 29
30 0 27 48 44 40 29 28 20 30 24 19 29 29 33 34 28 23 14 10 11 16 10 15 38 32 42 46 62 47 34 24 13 11 26 35 40 36 29 29 33 26 18
106 -6 24 58 46 43 32 24 25 26 16 14 20 29 28 23 25 16 9 8 12 10 3 36 35 39 38 36 45 36 31 15 7 -12 5 10 23 40 24 22 34 25 18
136 41 32 58 43 35 26 21 26 25 18 12 9 29 31 12 10 14 5 4 10 7 41 56 50 31 31 33 32 29 33 51 46 -11 20 -3 2 27 28 33 37 26 26
118 136 32 51 51 34 22 20 22 29 25 23 24 23 43 9 3 -2 5 1 11 17 59 51 43 38 26 26 23 20 39 70 82 1 14 18 22 31 32 29 31 29 28
102 121 47 46 36 43 34 19 25 26 23 30 30 22 45 25 2 2 12 16 34 56 62 46 38 34 30 20 17 15 31 52 60 6 30 24 11 26 31 34 34 34 34
135 135 73 36 48 41 44 33 31 29 29 27 16 33 42 39 14 9 16 20 48 57 54 42 32 28 23 18 13 13 23 52 82 7 24 7 15 27 30 33 35 35 33
122 118 131 43 43 56 43 41 35 35 33 28 21 25 35 36 24 14 19 22 48 54 46 36 34 29 23 18 15 8 4 29 60 21 27 13 27 31 34 36 36 35 33
101 122 126 148 53 52 55 48 40 41 41 37 32 31 45 37 20 16 24 31 44 56 54 42 37 27 17 12 16 12 0 11 32 19 39 27 33 31 35 37 37 34 32
74 91 118 134 147 85 79 61 50 48 46 44 41 47 68 55 29 15 19 29 46 57 65 52 40 28 19 20 32 15 5 8 19 28 42 29 33 36 37 37 36 34 31
65 78 83 113 135 130 114 93 82 66 64 65 68 76 85 82 58 50 43 30 37 56 69 60 45 36 33 37 34 22 14 20 22 38 48 42 44 45 42 39 38 38 37
38 53 71 81 101 117 129 145 92 106 108 103 107 107 107 85 75 69 61 53 47 53 61 63 53 47 45 48 41 28 27 19 22 27 55 61 53 53 48 41 37 36 35
6 29 42 64 74 85 105 120 123 111 121 125 116 116 124 103 85 82 101 93 100 90 91 76 68 63 58 59 50 48 37 26 35 40 65 71 58 54 46 39 34 33 31
34 31 38 44 62 79 97 100 117 117 104 118 120 134 151 134 117 114 131 130 144 146 130 115 95 75 57 49 53 57 44 38 40 63 79 84 70 59 51 46 36 27 26
65 68 60 52 60 77 93 111 116 116 119 107 137 125 155 146 122 133 173 186 176 175 160 154 123 101 75 48 55 66 57 45 53 90 97 75 69 60 55 41 35 31 27
59 67 77 60 60 76 98 113 117 122 121 133 130 129 134 149 140 160 206 242 218 209 189 179 152 126 96 80 64 69 53 63 54 94 113 88 86 79 64 54 42 36 30
146 81 77 84 87 61 68 110 135 129 123 137 137 129 134 150 151 197 241 244 218 196 168 183 161 140 122 97 77 88 101 95 87 68 108 124 107 90 84 70 62 51 41
128 127 118 86 97 105 110 102 128 144 133 123 150 119 141 154 195 205 254 228 228 222 206 183 203 174 165 135 126 113 113 109 95 94 92 133 140 128 99 78 74 68 59
65 74 97 115 114 104 115 141 138 141 163 139 138 171 132 155 182 228 256 251 250 253 239 192 183 220 200 201 168 141 132 113 110 92 103 103 131 149 149 105 91 91 82
56 56 65 74 104 117 146 152 179 181 185 172 140 157 170 143 159 204 226 258 258 278 255 241 219 209 253 211 195 176 165 136 125 106 112 119 106 139 156 155 137 117 97
97 138 144 112 96 119 159 179 174 189 182 184 161 138 167 178 136 162 193 194 250 275 255 253 239 221 217 263 279 239 185 143 128 108 120 127 107 100 130 153 179 187 168
81 103 135 178 177 203 200 215 197 179 186 195 181 163 147 149 163 142 168 176 193 277 284 263 251 283 230 284 299 288 193 150 128 104 116 106 121 134 130 147 167 195 218
92 80 84 127 199 252 253 250 232 216 207 183 178 179 180 142 156 152 141 134 147 215 281 273 271 277 282 261 255 310 280 235 178 92 99 116 97 129 131 139 181 211 225
88 58 34 66 151 254 258 199 210 203 174 163 120 144 178 150 126 134 136 109 118 172 234 255 271 270 268 215 252 223 262 272 242 176 84 55 83 119 143 150 142 158 185
51 62 43 39 64 108 148 128 159 181 164 144 132 110 123 107 115 123 111 114 131 151 205 262 236 240 249 249 241 243 184 180 181 135 50 114 128 119 139 144 161 190 205
81 92 72 39 20 31 74 79 99 115 120 135 132 115 114 92 81 94 109 122 140 127 147 181 240 206 220 183 226 219 189 200 197 201 170 149 128 104 159 191 239 257 275

GFSSE_con_3kmhel_126.txt.gz
Helicity
60 3 18 39 43 37 26 27 30 29 31 38 45 48 52 56 55 51 39 43 46 51 47 41 37 29 15 17 38 52 40 31 35 44 57 63 31 46 29 28 22 15 25
88 -12 19 36 36 32 22 22 33 34 31 31 36 38 41 45 44 33 28 29 31 34 35 43 39 38 38 51 57 42 51 28 19 27 39 48 50 30 21 33 30 15 18
65 21 12 52 42 26 29 27 31 36 18 25 35 35 35 38 36 27 20 21 24 20 40 49 49 50 51 57 60 51 50 44 31 23 29 19 18 30 24 30 17 15 15
62 76 24 50 52 35 27 23 26 31 21 22 29 43 36 27 31 20 16 15 18 19 57 53 44 44 54 50 53 66 63 52 40 23 10 10 2 29 22 32 29 19 19
68 71 37 36 40 49 34 26 26 22 20 22 36 37 47 19 16 19 13 14 21 35 60 48 42 38 41 46 56 69 71 52 13 0 14 18 16 15 21 28 23 22 21
116 91 60 31 39 42 47 36 29 29 29 22 27 30 51 32 12 14 17 30 25 52 55 45 37 33 29 28 40 50 61 63 44 59 24 15 18 25 24 27 26 25 26
139 113 97 38 28 45 50 48 41 41 42 33 31 22 39 46 27 21 35 46 52 63 52 40 35 30 24 19 21 30 48 56 30 36 31 17 10 25 26 28 29 28 28
105 111 103 124 51 49 52 49 50 44 50 44 41 40 44 48 38 33 28 41 55 45 43 37 26 21 21 18 16 19 43 54 40 31 16 17 26 34 34 33 30 28 28
87 111 114 111 135 65 59 59 47 46 49 49 47 50 56 62 52 48 42 26 48 51 43 31 24 19 16 13 16 16 29 53 51 33 21 26 35 39 39 35 31 28 29
67 75 101 113 114 125 84 71 71 51 49 49 49 49 62 72 61 50 54 47 44 52 59 47 31 17 10 5 10 14 24 43 45 34 34 30 37 42 40 37 34 33 36
65 70 77 90 95 118 116 101 76 74 66 62 62 61 75 95 81 71 61 61 62 71 72 63 49 31 21 10 13 11 24 35 48 31 37 30 40 45 45 42 40 40 40
39 61 62 78 101 100 107 98 107 70 96 101 98 99 108 102 99 88 79 72 64 72 87 82 64 57 48 49 38 23 35 34 45 37 39 30 43 44 47 46 42 39 36
-3 31 56 71 77 102 96 106 94 85 84 92 104 117 121 114 115 111 109 108 112 93 120 109 99 96 84 74 53 44 42 37 36 36 29 27 46 39 47 44 42 39 34
34 31 38 52 75 101 108 110 113 110 102 99 97 113 141 141 130 127 134 128 139 150 142 149 142 116 101 82 75 58 45 43 49 44 41 40 47 38 38 35 34 37 36
73 85 94 70 52 75 108 131 136 132 120 111 98 95 136 147 144 154 154 157 148 164 164 170 159 143 122 104 87 82 65 45 29 46 46 51 37 48 44 39 30 29 30
104 97 97 101 104 78 73 99 133 161 168 143 115 106 120 144 151 159 171 180 166 181 172 168 170 161 145 133 104 97 70 68 66 67 71 56 51 58 56 50 36 24 21
70 58 68 80 93 84 77 87 114 139 154 165 158 121 127 123 119 138 163 196 180 221 213 203 187 173 156 157 129 121 105 81 83 83 94 82 90 55 51 52 39 33 26
24 33 32 42 57 71 85 96 100 130 154 164 183 164 144 129 119 137 168 186 208 221 251 246 227 196 163 166 146 135 133 135 112 105 115 123 118 104 72 57 62 49 45
27 19 20 23 24 49 61 83 110 113 133 170 184 197 168 164 138 158 185 176 220 259 271 231 227 220 194 185 160 146 151 167 165 146 127 127 132 121 127 94 92 83 66
55 73 86 76 54 51 62 61 85 136 141 146 173 181 170 172 180 153 178 186 214 260 245 246 232 242 239 204 187 161 153 134 169 186 158 137 136 127 139 122 124 102 87
49 69 91 112 134 114 72 99 106 128 151 164 171 171 165 156 162 179 164 152 190 208 213 229 254 249 240 267 270 216 180 147 155 174 190 151 119 140 142 133 141 136 115
12 43 65 96 93 109 145 142 185 180 182 163 171 185 172 175 177 175 184 159 148 166 162 184 235 274 253 302 290 286 241 197 173 157 173 160 130 129 138 134 137 135 141
30 54 73 75 58 64 101 149 237 232 210 185 169 170 160 155 151 177 154 143 125 147 126 111 142 182 246 306 315 355 273 274 232 190 163 176 109 137 142 145 146 148 154
53 57 75 71 42 40 47 99 185 207 186 171 139 137 144 135 149 169 162 137 119 113 125 131 131 153 216 215 286 280 350 282 237 202 161 184 158 133 109 94 91 116 137
-27 1 21 53 71 73 80 51 74 75 96 116 115 100 113 109 112 123 125 127 141 103 109 116 116 120 177 227 300 294 237 326 329 276 197 199 211 160 122 81 96 108 109
-39 -15 23 132 140 102 89 53 37 43 56 86 98 102 100 106 102 85 82 93 98 112 104 99 83 112 148 212 260 290 282 305 316 284 177 163 169 143 118 93 79 94 132

GFSSE_con_3kmhel_129.txt.gz
Helicity
43 68 22 39 46 42 31 30 38 48 55 64 67 67 68 71 67 56 48 50 47 56 64 54 44 29 33 23 21 44 30 40 45 44 43 28 41 37 40 39 36 16 27
105 78 -7 24 26 29 37 31 36 43 41 45 51 54 56 63 62 55 50 46 45 45 52 45 48 52 46 38 49 55 43 41 43 41 45 39 34 19 28 31 28 15 20
73 53 -3 26 34 35 34 35 42 40 33 32 37 41 45 50 50 42 36 38 30 24 42 32 53 64 64 70 65 63 67 48 35 40 32 20 12 30 33 25 14 15 20
59 82 23 27 34 34 40 46 45 43 34 31 38 36 39 40 39 36 30 27 15 14 61 57 46 60 59 69 74 70 67 48 32 29 26 26 17 17 25 21 19 16 17
70 74 74 32 35 38 34 35 42 45 42 42 45 44 43 32 33 29 27 23 12 31 59 52 45 53 55 71 72 72 62 34 13 22 26 22 23 21 25 24 21 19 21
108 98 82 37 27 36 51 49 37 41 43 45 47 49 59 49 32 27 22 28 40 46 46 38 36 33 46 60 65 62 51 31 32 30 29 21 26 23 25 21 17 18 23
130 110 101 100 37 28 30 47 54 50 43 44 45 44 44 57 44 40 47 37 42 51 43 31 28 25 27 35 46 47 44 44 46 47 30 21 16 29 26 22 19 22 26
106 95 88 97 113 70 36 35 43 56 58 55 45 44 44 55 53 55 57 59 52 54 46 33 23 19 15 21 27 36 39 43 46 45 31 21 11 30 28 26 22 23 27
84 98 93 102 109 103 89 44 52 56 60 56 53 48 49 51 64 63 57 63 63 61 54 45 30 20 12 8 14 35 35 39 40 41 36 20 11 29 31 29 24 24 26
76 74 84 87 98 111 105 86 77 64 61 55 54 49 50 52 56 58 62 61 61 67 68 63 45 31 22 15 17 31 39 34 40 33 34 30 17 31 34 32 30 30 28
71 53 59 84 83 88 113 124 119 80 56 67 74 68 67 83 73 62 67 63 65 72 81 79 63 53 47 29 23 28 47 55 38 32 40 22 17 25 33 34 35 34 34
58 78 72 76 88 91 90 102 136 108 82 63 87 95 104 100 102 88 79 66 61 74 87 85 78 70 68 69 54 42 61 61 54 43 43 18 13 16 27 30 30 30 31
59 75 112 113 113 105 102 99 82 98 103 90 79 89 112 121 125 121 116 105 105 89 115 106 114 116 106 98 83 77 67 64 64 61 44 25 18 9 22 27 27 27 28
40 52 83 104 95 105 109 115 103 86 97 118 104 97 106 130 136 129 131 130 130 140 142 146 150 142 127 109 99 86 85 82 79 66 53 23 19 5 11 25 26 29 25
47 67 72 64 79 87 87 109 128 121 113 100 110 119 113 119 129 147 151 153 158 168 170 166 167 160 138 127 111 98 85 86 87 83 66 45 39 25 -5 13 15 12 11
45 38 32 42 41 42 49 75 88 116 154 155 137 130 122 115 116 135 152 168 167 188 194 191 181 168 164 160 131 122 93 97 102 96 84 65 44 57 38 14 24 23 17
32 12 19 26 32 38 37 43 55 80 104 135 166 162 141 126 112 115 137 159 165 174 186 210 198 191 173 174 146 148 139 110 100 107 108 101 84 62 58 33 30 33 29
-8 7 14 20 29 29 31 38 44 58 85 110 132 170 180 160 137 119 138 151 145 182 197 207 219 231 205 198 171 163 164 159 125 109 121 130 126 112 83 56 52 45 38
7 3 13 26 37 53 55 51 43 39 83 96 128 158 164 173 169 155 132 119 116 136 163 196 202 242 238 222 198 180 187 165 145 141 138 142 155 145 149 106 80 80 69
18 13 22 33 53 65 61 60 64 44 66 104 121 150 177 184 179 180 157 124 119 143 168 175 164 200 238 208 189 173 190 192 179 161 148 146 178 169 165 149 135 104 86
17 20 37 59 99 96 84 46 23 38 74 113 146 147 144 175 196 196 192 168 135 116 130 139 146 156 172 216 248 200 199 188 177 195 169 182 174 176 192 165 163 152 133
20 19 35 57 91 107 79 84 83 62 73 135 182 175 149 162 187 191 203 205 183 147 81 104 152 144 140 156 176 172 141 162 207 163 169 185 169 172 192 149 156 158 156
10 2 2 48 78 82 100 113 126 114 129 143 144 172 159 156 176 176 183 179 192 184 139 76 99 81 119 140 151 192 179 239 254 233 204 227 177 189 182 135 152 142 160
-11 -23 -25 -9 54 60 76 117 98 117 154 156 161 165 167 158 156 154 162 172 180 186 183 127 44 114 101 57 109 208 218 84 386 225 188 200 221 210 199 160 226 131 144
-13 -21 -8 -21 10 44 26 24 30 54 73 79 82 99 124 123 115 123 134 155 153 149 155 162 134 112 99 106 90 83 172 199 165 402 213 264 228 212 200 185 178 193 190
-40 -44 -44 -8 17 36 37 51 62 78 87 78 65 68 74 92 102 114 133 130 120 109 107 101 96 112 118 125 124 124 92 282 192 244 231 280 286 293 285 195 197 239 161